Weather History for KHWV - September, 2013

Change the Weather History Date:

Monday, September 16, 2013

  Actual Average (KISP) Record (KISP)
Temperature  
Mean Temperature 62 °F 66 °F  
Max Temperature 71 °F 74 °F 88 °F (1998)
Min Temperature 55 °F 58 °F 46 °F (1988)
Degree Days  
Heating Degree Days 2 2  
Month to date heating degree days 18  
Since 1 July heating degree days 23  
Cooling Degree Days 0 3  
Month to date cooling degree days 69  
Year to date cooling degree days 755  
Growing Degree Days 12 (Base 50)    
Moisture  
Dew Point 54 °F    
Average Humidity 73    
Maximum Humidity 93    
Minimum Humidity 49    
Precipitation  
Precipitation 0.01 in 0.12 in 2.26 in (1999)
Month to date precipitation 1.86  
Year to date precipitation 33.00  
Snow  
Snow 0.00 in 0.00 in - ()
Month to date snowfall 0.0  
Since 1 July snowfall 0.0  
Snow Depth -    
Sea Level Pressure  
Sea Level Pressure 30.10 in    
Wind  
Wind Speed 4 mph (NNW)    
Max Wind Speed 15 mph    
Max Gust Speed 23 mph    
Visibility 10 miles    
Events Rain    
T = Trace of Precipitation, MM = Missing Value Source: NWS Daily Summary

Daily Weather History Graph

Daily Weather History Graph

Search for Another Location

Airport or City:

Trip Planner

Search our weather history database for the weather conditions in past years. The results will help you decide how hot, cold, wet, or windy it might be!

Date:

Astronomy

Sep. 16, 2013 Rise Set
Actual Time 6:33 AM EDT 6:58 PM EDT
Civil Twilight 6:05 AM EDT 7:25 PM EDT
Nautical Twilight 5:33 AM EDT 7:58 PM EDT
Astronomical Twilight 5:00 AM EDT 8:31 PM EDT
Moon 5:06 PM EDT (9/16) 3:15 AM EDT (9/16)
Length of Visible Light 13h 20m
Length of Day
12h 25m
Waxing Gibbous, 90% of the Moon is Illuminated
Sep 16
Waxing Gibbous
Sep 19
Full
Sep 26
Last Quarter
Oct 4
New
Oct 11
First Quarter

Hourly Weather History & Observations

Time (EDT) Temp. Dew Point Humidity Pressure Visibility Wind Dir Wind Speed Gust Speed Precip Events Conditions
12:56 AM 61.0 °F 57.0 °F 87% 30.10 in 10.0 mi Calm Calm - N/A   Clear
1:56 AM 62.1 °F 55.0 °F 78% 30.09 in 10.0 mi SW 4.6 mph - N/A   Clear
2:56 AM 62.1 °F 55.9 °F 80% 30.08 in 10.0 mi Calm Calm - N/A   Clear
3:56 AM 57.9 °F 55.0 °F 90% 30.07 in 10.0 mi Calm Calm - N/A   Clear
4:56 AM 55.9 °F 54.0 °F 93% 30.06 in 10.0 mi Calm Calm - N/A   Clear
5:56 AM 55.9 °F 54.0 °F 93% 30.06 in 10.0 mi Calm Calm - N/A   Clear
6:56 AM 57.0 °F 55.0 °F 93% 30.06 in 10.0 mi Calm Calm - N/A   Mostly Cloudy
7:56 AM 63.0 °F 59.0 °F 87% 30.07 in 10.0 mi Calm Calm - N/A   Overcast
8:56 AM 63.0 °F 59.0 °F 87% 30.07 in 10.0 mi West 3.5 mph - N/A   Clear
9:56 AM 64.0 °F 60.1 °F 87% 30.08 in 10.0 mi WNW 6.9 mph - 0.00 in Rain Light Rain
10:10 AM 64.4 °F 59.0 °F 83% 30.09 in 10.0 mi NW 10.4 mph - 0.00 in Rain Light Rain
10:48 AM 62.6 °F 55.4 °F 77% 30.09 in 10.0 mi North 9.2 mph - 0.00 in   Overcast
10:56 AM 64.0 °F 55.0 °F 73% 30.10 in 10.0 mi North 10.4 mph - 0.00 in   Mostly Cloudy
11:56 AM 63.0 °F 55.9 °F 78% 30.08 in 10.0 mi Variable 4.6 mph - 0.01 in Rain Light Rain
12:56 PM 64.9 °F 55.0 °F 70% 30.08 in 10.0 mi North 6.9 mph - 0.00 in   Overcast
1:56 PM 68.0 °F 51.1 °F 55% 30.07 in 10.0 mi North 9.2 mph - N/A   Mostly Cloudy
2:56 PM 70.0 °F 52.0 °F 53% 30.06 in 10.0 mi NW 10.4 mph - N/A   Clear
3:56 PM 70.0 °F 51.1 °F 51% 30.06 in 10.0 mi NW 9.2 mph - N/A   Clear
4:56 PM 70.0 °F 52.0 °F 53% 30.06 in 10.0 mi NNE 5.8 mph - N/A   Overcast
5:56 PM 69.1 °F 51.1 °F 53% 30.08 in 10.0 mi NNW 11.5 mph - N/A   Overcast
6:56 PM 63.0 °F 51.1 °F 65% 30.10 in 10.0 mi NNW 6.9 mph - N/A   Clear
7:56 PM 63.0 °F 51.1 °F 65% 30.12 in 10.0 mi NNW 4.6 mph - N/A   Overcast
8:56 PM 64.0 °F 51.1 °F 63% 30.14 in 10.0 mi North 8.1 mph - N/A   Mostly Cloudy
9:56 PM 63.0 °F 51.1 °F 65% 30.17 in 10.0 mi North 10.4 mph 19.6 mph N/A   Mostly Cloudy
10:56 PM 62.1 °F 50.0 °F 65% 30.20 in 10.0 mi NNE 10.4 mph 19.6 mph N/A   Mostly Cloudy
11:56 PM 57.9 °F 39.0 °F 49% 30.23 in 10.0 mi North 15.0 mph 23.0 mph N/A   Clear